This demonstration page uses our WeatherBlox Daily Observations layout. Learn more.

Left ArrowRight Arrow

Hourly Observations for December 8, 2016

Temp ( °F °C ) Dew Point ( °F °C ) Humidity (%) Winds ( mph kmh ) Pressure ( in mb ) Visibility ( mi km ) Precip ( " mm )
12:19 am 00:19 Clear 27 -3 21 -6 80 80 WNW 14 22 30.24 1024 10 16 N/A
12:39 am 00:39 Partly Cloudy 27 -3 21 -6 80 80 WNW 13 20 30.24 1024 10 16 N/A
12:59 am 00:59 Mostly Cloudy 27 -3 19 -7 74 74 WNW 14 22 30.24 1024 10 16 N/A
1:19 am 01:19 Cloudy 27 -3 19 -7 74 74 WNW 15 24 30.24 1024 10 16 N/A
1:39 am 01:39 Cloudy 27 -3 18 -8 69 69 WNW 16 26 30.24 1024 10 16 N/A
1:59 am 01:59 Cloudy 27 -3 18 -8 69 69 WNW 17 28 30.24 1024 10 16 N/A
2:19 am 02:19 Cloudy 27 -3 18 -8 69 69 WNW 14 22 30.24 1024 10 16 N/A
2:39 am 02:39 Cloudy 27 -3 18 -8 69 69 WNW 14 22 30.24 1024 10 16 N/A
2:59 am 02:59 Partly Cloudy 25 -4 18 -8 74 74 WNW 15 24 30.27 1025 10 16 N/A
3:19 am 03:19 Clear 25 -4 18 -8 74 74 WNW 14 22 30.27 1025 10 16 N/A
3:39 am 03:39 Mostly Cloudy 25 -4 18 -8 74 74 WNW 15 24 30.27 1025 10 16 N/A
3:59 am 03:59 Cloudy 25 -4 18 -8 74 74 WNW 15 24 30.27 1025 10 16 N/A
4:19 am 04:19 Cloudy 25 -4 18 -8 74 74 WNW 15 24 30.27 1025 10 16 N/A
4:39 am 04:39 Cloudy 25 -4 18 -8 74 74 WNW 15 24 30.27 1025 10 16 N/A
4:58 am 04:58 Cloudy 25 -4 18 -8 74 74 W 15 24 30.27 1025 10 16 N/A
5:19 am 05:19 Cloudy 25 -4 16 -9 69 69 WNW 17 28 30.27 1025 10 16 N/A
5:39 am 05:39 Cloudy 25 -4 16 -9 69 69 WNW 16 26 30.27 1025 10 16 N/A
5:59 am 05:59 Cloudy 25 -4 16 -9 69 69 W 17 28 30.27 1025 10 16 N/A
6:19 am 06:19 Cloudy 25 -4 16 -9 69 69 WNW 14 22 30.27 1025 10 16 N/A
6:39 am 06:39 Cloudy 23 -5 16 -9 74 74 WNW 18 30 30.30 1026 10 16 N/A
6:59 am 06:59 Cloudy 23 -5 16 -9 74 74 WNW 14 22 30.30 1026 10 16 N/A
7:19 am 07:19 Partly Cloudy 21 -6 14 -10 74 74 WNW 18 30 30.30 1026 10 16 N/A
7:39 am 07:39 Clear 21 -6 14 -10 74 74 W 12 19 30.30 1026 10 16 N/A
7:58 am 07:58 Partly Cloudy 21 -6 14 -10 74 74 W 15 24 30.30 1026 10 16 N/A
8:19 am 08:19 Mostly Cloudy 21 -6 14 -10 74 74 W 16 26 30.30 1026 10 16 N/A
8:39 am 08:39 Mostly Cloudy 21 -6 14 -10 74 74 W 16 26 30.30 1026 10 16 N/A
8:58 am 08:58 Mostly Cloudy 21 -6 14 -10 74 74 W 13 20 30.33 1027 10 16 N/A
9:19 am 09:19 Cloudy 21 -6 14 -10 74 74 W 17 28 30.33 1027 10 16 N/A
9:39 am 09:39 Cloudy 21 -6 14 -10 74 74 W 20 31 30.33 1027 10 16 N/A
9:59 am 09:59 Cloudy 23 -5 14 -10 68 68 W 20 31 30.33 1027 7 11 N/A
10:19 am 10:19 Cloudy 23 -5 14 -10 68 68 WNW 20 31 30.36 1028 10 16 N/A
10:39 am 10:39 Cloudy 23 -5 14 -10 68 68 W 14 22 30.36 1028 10 16 N/A
10:59 am 10:59 Cloudy 23 -5 14 -10 68 68 WNW 18 30 30.36 1028 10 16 N/A
11:18 am 11:18 Cloudy 23 -5 14 -10 68 68 WNW 17 28 30.36 1028 10 16 N/A
11:39 am 11:39 Cloudy 21 -6 14 -10 74 74 W 14 22 30.36 1028 10 16 N/A
11:59 am 11:59 Cloudy 21 -6 14 -10 74 74 W 16 26 30.36 1028 10 16 N/A
12:19 pm 12:19 Cloudy 23 -5 14 -10 68 68 WNW 18 30 30.36 1028 10 16 N/A
12:39 pm 12:39 Cloudy 23 -5 16 -9 74 74 W 15 24 30.36 1028 5 8 N/A
12:59 pm 12:59 Cloudy 23 -5 14 -10 68 68 W 18 30 30.36 1028 10 16 N/A
1:18 pm 13:18 Cloudy 23 -5 14 -10 68 68 W 21 33 30.36 1028 10 16 N/A
1:39 pm 13:39 Cloudy 23 -5 14 -10 68 68 W 15 24 30.36 1028 10 16 N/A
1:59 pm 13:59 Cloudy 23 -5 14 -10 68 68 W 20 31 30.36 1028 10 16 N/A
2:19 pm 14:19 Cloudy 25 -4 14 -10 63 63 W 21 33 30.36 1028 10 16 N/A
2:39 pm 14:39 Cloudy 25 -4 14 -10 63 63 W 22 35 30.36 1028 7 11 N/A
2:59 pm 14:59 Cloudy 23 -5 14 -10 68 68 W 18 30 30.39 1029 10 16 N/A
3:19 pm 15:19 Cloudy 23 -5 14 -10 68 68 W 15 24 30.39 1029 10 16 N/A
3:39 pm 15:39 Cloudy 23 -5 16 -9 74 74 W 16 26 30.39 1029 5 8 N/A
3:59 pm 15:59 Cloudy 23 -5 14 -10 68 68 WNW 17 28 30.39 1029 10 16 N/A
4:19 pm 16:19 Cloudy 23 -5 14 -10 68 68 W 21 33 30.42 1030 10 16 N/A
4:39 pm 16:39 Cloudy 23 -5 14 -10 68 68 WNW 15 24 30.42 1030 10 16 N/A
4:59 pm 16:59 Cloudy 23 -5 14 -10 68 68 WNW 15 24 30.42 1030 10 16 N/A
5:19 pm 17:19 Cloudy 23 -5 14 -10 68 68 WNW 20 31 30.42 1030 10 16 N/A
5:39 pm 17:39 Cloudy 21 -6 14 -10 74 74 W 17 28 30.45 1031 7 11 N/A
5:59 pm 17:59 Cloudy 21 -6 14 -10 74 74 WNW 15 24 30.45 1031 7 11 N/A
6:19 pm 18:19 Cloudy 21 -6 14 -10 74 74 WNW 14 22 30.45 1031 7 11 N/A
6:39 pm 18:39 Cloudy 21 -6 16 -9 80 80 W 14 22 30.45 1031 10 16 N/A
6:59 pm 18:59 Cloudy 21 -6 14 -10 74 74 WNW 16 26 30.45 1031 10 16 N/A
7:19 pm 19:19 Cloudy 21 -6 14 -10 74 74 WNW 14 22 30.45 1031 10 16 N/A
7:39 pm 19:39 Cloudy 21 -6 14 -10 74 74 NW 14 22 30.48 1032 10 16 N/A
7:59 pm 19:59 Cloudy 21 -6 14 -10 74 74 NW 12 19 30.48 1032 10 16 N/A
8:19 pm 20:19 Cloudy 21 -6 14 -10 74 74 W 16 26 30.48 1032 10 16 N/A
8:39 pm 20:39 Cloudy 21 -6 14 -10 74 74 NW 14 22 30.48 1032 10 16 N/A
8:59 pm 20:59 Cloudy 21 -6 12 -11 68 68 NW 15 24 30.48 1032 10 16 N/A
9:19 pm 21:19 Cloudy 21 -6 14 -10 74 74 WNW 14 22 30.48 1032 7 11 N/A
9:39 pm 21:39 Cloudy 21 -6 14 -10 74 74 WNW 14 22 30.50 1033 5 8 N/A
9:59 pm 21:59 Cloudy 19 -7 14 -10 79 79 NW 10 17 30.50 1033 7 11 N/A
10:19 pm 22:19 Cloudy 19 -7 16 -9 86 86 WNW 12 19 30.50 1033 5 8 N/A
10:39 pm 22:39 Cloudy 19 -7 16 -9 86 86 W 10 17 30.50 1033 5 8 N/A
10:59 pm 22:59 Cloudy 19 -7 16 -9 86 86 WNW 9 15 30.50 1033 4 6 N/A
11:19 pm 23:19 Cloudy 19 -7 16 -9 86 86 WNW 10 17 30.50 1033 4 6 N/A
11:39 pm 23:39 Cloudy 19 -7 16 -9 86 86 W 10 17 30.50 1033 4 6 N/A
11:59 pm 23:59 Cloudy 19 -7 16 -9 86 86 W 12 19 30.50 1033 5 8 N/A

Powered by AerisWeather